TimeEST,TemperatureF,Dew PointF,Humidity,Sea Level PressureIn,VisibilityMPH,Wind Direction,Wind SpeedMPH,Gust SpeedMPH,PrecipitationIn,Events,Conditions,WindDirDegrees,DateUTC
12:15 AM,21.2,17.6,86,29.79,10.0,NW,10.4,-,N/A,,Overcast,310,2013-03-02 05:15:00
12:35 AM,21.2,17.6,86,29.77,10.0,WNW,11.5,-,N/A,,Overcast,290,2013-03-02 05:35:00
12:55 AM,21.2,17.6,86,29.77,10.0,WNW,12.7,16.1,N/A,,Overcast,300,2013-03-02 05:55:00
1:15 AM,19.4,17.6,93,29.77,10.0,WNW,6.9,-,N/A,,Overcast,300,2013-03-02 06:15:00
1:35 AM,19.4,17.6,93,29.77,10.0,NW,6.9,-,N/A,,Overcast,320,2013-03-02 06:35:00
1:55 AM,19.4,17.6,93,29.78,10.0,NW,9.2,-,N/A,,Overcast,310,2013-03-02 06:55:00
2:15 AM,19.4,17.6,93,29.77,10.0,NW,11.5,16.1,N/A,,Overcast,310,2013-03-02 07:15:00
2:35 AM,19.4,17.6,93,29.77,10.0,NW,8.1,16.1,N/A,,Overcast,310,2013-03-02 07:35:00
2:55 AM,19.4,15.8,86,29.76,10.0,NW,11.5,-,N/A,,Overcast,320,2013-03-02 07:55:00
3:15 AM,17.6,15.8,93,29.76,10.0,WNW,9.2,17.3,N/A,,Overcast,300,2013-03-02 08:15:00
3:35 AM,17.6,15.8,93,29.75,10.0,WNW,10.4,-,N/A,,Overcast,300,2013-03-02 08:35:00
3:55 AM,17.6,15.8,93,29.75,10.0,WNW,11.5,-,N/A,,Overcast,300,2013-03-02 08:55:00
4:15 AM,17.6,15.8,93,29.74,10.0,WNW,11.5,-,N/A,,Overcast,290,2013-03-02 09:15:00
4:35 AM,17.6,15.8,93,29.75,10.0,WNW,9.2,17.3,N/A,,Overcast,300,2013-03-02 09:35:00
4:55 AM,17.6,15.8,93,29.75,10.0,NW,9.2,-,N/A,,Overcast,310,2013-03-02 09:55:00
5:15 AM,17.6,15.8,93,29.75,10.0,WNW,9.2,-,N/A,Snow,Light Snow,300,2013-03-02 10:15:00
5:35 AM,17.6,15.8,93,29.75,10.0,NW,9.2,16.1,N/A,Snow,Light Snow,310,2013-03-02 10:35:00
5:55 AM,17.6,15.8,93,29.74,10.0,NW,10.4,-,N/A,Snow,Light Snow,310,2013-03-02 10:55:00
6:15 AM,17.6,15.8,93,29.73,10.0,WNW,12.7,17.3,N/A,Snow,Light Snow,300,2013-03-02 11:15:00
6:35 AM,17.6,15.8,93,29.73,10.0,WNW,15.0,20.7,N/A,,Overcast,300,2013-03-02 11:35:00
6:55 AM,17.6,15.8,93,29.74,10.0,WNW,15.0,19.6,N/A,,Overcast,300,2013-03-02 11:55:00
7:15 AM,17.6,15.8,93,29.74,10.0,WNW,11.5,21.9,N/A,,Overcast,290,2013-03-02 12:15:00
7:35 AM,17.6,15.8,93,29.75,7.0,WNW,12.7,20.7,N/A,Snow,Light Snow,290,2013-03-02 12:35:00
7:55 AM,17.6,15.8,93,29.75,7.0,WNW,13.8,18.4,N/A,Snow,Light Snow,300,2013-03-02 12:55:00
8:15 AM,17.6,15.8,93,29.76,5.0,WNW,11.5,19.6,N/A,Snow,Light Snow,290,2013-03-02 13:15:00
8:35 AM,17.6,15.8,93,29.76,5.0,West,13.8,-,N/A,Snow,Light Snow,280,2013-03-02 13:35:00
8:55 AM,17.6,15.8,93,29.76,5.0,West,12.7,17.3,N/A,Snow,Light Snow,280,2013-03-02 13:55:00
9:15 AM,17.6,15.8,93,29.76,4.0,WNW,10.4,16.1,N/A,Snow,Light Snow,290,2013-03-02 14:15:00
9:35 AM,17.6,15.8,93,29.76,5.0,WNW,9.2,-,N/A,Snow,Light Snow,290,2013-03-02 14:35:00
9:55 AM,17.6,15.8,93,29.76,5.0,West,9.2,-,N/A,Snow,Light Snow,280,2013-03-02 14:55:00
10:15 AM,17.6,15.8,93,29.75,7.0,WNW,9.2,16.1,N/A,Snow,Light Snow,290,2013-03-02 15:15:00
10:35 AM,19.4,15.8,86,29.75,7.0,West,9.2,-,N/A,Snow,Light Snow,280,2013-03-02 15:35:00
10:55 AM,19.4,15.8,86,29.75,10.0,WNW,10.4,16.1,N/A,Snow,Light Snow,300,2013-03-02 15:55:00
11:15 AM,19.4,15.8,86,29.75,10.0,NW,9.2,-,N/A,Snow,Light Snow,310,2013-03-02 16:15:00
11:35 AM,19.4,15.8,86,29.75,10.0,West,10.4,-,N/A,,Overcast,280,2013-03-02 16:35:00
11:55 AM,19.4,17.6,93,29.75,10.0,WNW,8.1,-,N/A,,Overcast,290,2013-03-02 16:55:00
12:15 PM,19.4,17.6,93,29.74,10.0,WNW,9.2,-,N/A,,Overcast,290,2013-03-02 17:15:00
12:35 PM,21.2,15.8,80,29.74,10.0,West,10.4,16.1,N/A,,Overcast,280,2013-03-02 17:35:00
12:55 PM,21.2,17.6,86,29.73,10.0,WNW,10.4,16.1,N/A,,Overcast,300,2013-03-02 17:55:00
1:15 PM,21.2,15.8,80,29.73,10.0,WNW,12.7,-,N/A,,Overcast,300,2013-03-02 18:15:00
1:55 PM,21.2,17.6,86,29.73,10.0,WNW,12.7,-,N/A,,Overcast,290,2013-03-02 18:55:00
2:15 PM,21.2,15.8,80,29.73,10.0,WNW,9.2,-,N/A,,Overcast,290,2013-03-02 19:15:00
2:35 PM,21.2,15.8,80,29.72,10.0,WNW,12.7,18.4,N/A,,Overcast,290,2013-03-02 19:35:00
2:55 PM,21.2,15.8,80,29.72,10.0,WNW,13.8,17.3,N/A,,Overcast,290,2013-03-02 19:55:00
3:15 PM,21.2,15.8,80,29.72,10.0,WNW,9.2,18.4,N/A,,Overcast,300,2013-03-02 20:15:00
3:35 PM,21.2,15.8,80,29.72,10.0,WNW,11.5,17.3,N/A,,Overcast,300,2013-03-02 20:35:00
3:55 PM,19.4,15.8,86,29.72,10.0,WNW,12.7,18.4,N/A,,Overcast,300,2013-03-02 20:55:00
4:15 PM,19.4,15.8,86,29.72,10.0,WNW,12.7,19.6,N/A,Snow,Light Snow,300,2013-03-02 21:15:00
4:35 PM,19.4,15.8,86,29.73,10.0,WNW,15.0,23.0,N/A,Snow,Light Snow,300,2013-03-02 21:35:00
4:55 PM,19.4,14.0,80,29.73,10.0,WNW,10.4,20.7,N/A,Snow,Light Snow,290,2013-03-02 21:55:00
5:15 PM,19.4,15.8,86,29.73,10.0,WNW,17.3,25.3,N/A,Snow,Light Snow,300,2013-03-02 22:15:00
5:35 PM,19.4,14.0,80,29.74,10.0,NW,19.6,26.5,N/A,,Mostly Cloudy,310,2013-03-02 22:35:00
5:55 PM,17.6,14.0,86,29.75,10.0,West,15.0,-,N/A,Snow,Light Snow,280,2013-03-02 22:55:00
6:15 PM,17.6,14.0,86,29.75,10.0,West,17.3,21.9,N/A,Snow,Light Snow,280,2013-03-02 23:15:00
6:35 PM,17.6,15.8,93,29.75,10.0,West,15.0,19.6,N/A,Snow,Light Snow,280,2013-03-02 23:35:00
6:55 PM,17.6,15.8,93,29.75,10.0,WNW,13.8,19.6,N/A,Snow,Light Snow,290,2013-03-02 23:55:00
7:15 PM,17.6,14.0,86,29.75,10.0,WNW,13.8,20.7,N/A,Snow,Light Snow,290,2013-03-03 00:15:00
7:35 PM,17.6,15.8,93,29.76,10.0,WNW,13.8,23.0,N/A,Snow,Light Snow,290,2013-03-03 00:35:00
7:55 PM,17.6,14.0,86,29.76,10.0,WNW,12.7,23.0,N/A,Snow,Light Snow,290,2013-03-03 00:55:00
8:15 PM,17.6,15.8,93,29.76,10.0,West,17.3,23.0,N/A,,Overcast,280,2013-03-03 01:15:00
8:35 PM,17.6,15.8,93,29.75,10.0,WNW,17.3,26.5,N/A,Snow,Light Snow,300,2013-03-03 01:35:00
8:55 PM,17.6,15.8,93,29.76,10.0,WNW,15.0,24.2,N/A,Snow,Light Snow,300,2013-03-03 01:55:00
9:15 PM,17.6,15.8,93,29.76,10.0,WNW,17.3,27.6,N/A,,Overcast,290,2013-03-03 02:15:00
9:35 PM,17.6,15.8,93,29.76,10.0,WNW,18.4,26.5,N/A,Snow,Light Snow,300,2013-03-03 02:35:00
9:55 PM,17.6,15.8,93,29.76,10.0,NW,15.0,26.5,N/A,Snow,Light Snow,310,2013-03-03 02:55:00
10:15 PM,17.6,15.8,93,29.76,7.0,WNW,18.4,25.3,N/A,Snow,Light Snow,300,2013-03-03 03:15:00
10:35 PM,17.6,15.8,93,29.77,7.0,NW,15.0,24.2,N/A,Snow,Light Snow,310,2013-03-03 03:35:00
10:55 PM,17.6,15.8,93,29.76,10.0,NW,16.1,26.5,N/A,Snow,Light Snow,310,2013-03-03 03:55:00
11:15 PM,17.6,15.8,93,29.75,10.0,WNW,21.9,28.8,N/A,Snow,Light Snow,290,2013-03-03 04:15:00
11:35 PM,17.6,15.8,93,29.75,10.0,WNW,21.9,28.8,N/A,Snow,Light Snow,290,2013-03-03 04:35:00
11:55 PM,17.6,15.8,93,29.75,7.0,WNW,16.1,21.9,N/A,Snow,Light Snow,300,2013-03-03 04:55:00